Location: Krasnoyarskiy Pitomnik
(51.1333°N, 71.6167°E)
Time: 13:38:55
(UTC+00:00)

Cosmos 1626 - Pass Details

Date: 22 October 2021
Orbit: 487 x 492 km, 82.5° (Epoch: 27 November)

Event Time Altitude Azimuth Distance (km) Brightness Sun altitude
Rises 23:20:17 0° 161° (SSE) 2,563 5.8 -24.1°
Reaches altitude 10° 23:22:35 10° 150° (SSE) 1,687 5.0 -23.7°
Maximum altitude 23:25:45 27° 91° (E) 971 4.2 -23.2°
Drops below altitude 10° 23:28:56 10° 32° (NNE) 1,701 5.3 -22.8°
Sets 23:31:15 0° 20° (NNE) 2,588 6.2 -22.4°
